[Iaude] MPEC B92: 2019 BP1 [a=2.56,e=0.63,i=23.8,H=19.7,PHA]

mpec at mpcdb1.cfa.harvard.edu mpec at mpcdb1.cfa.harvard.edu
Sat Jan 26 16:23:16 EST 2019


M.P.E.C. 2019-B92                                Issued 2019 Jan. 26, 21:19 UT
 
     The Minor Planet Electronic Circulars contain information on unusual
         minor planets and routine data on comets.  They are published
    on behalf of Division F of the International Astronomical Union by the
          Minor Planet Center, Smithsonian Astrophysical Observatory,
                          Cambridge, MA 02138, U.S.A.

             Prepared using the Tamkin Foundation Computer Network

                              MPC at CFA.HARVARD.EDU
            URL https://www.minorplanetcenter.net/    ISSN 1523-6714


                                   2019 BP1
 
Observations:
     K19B01P* C2019 01 23.57625 13 37 57.801+68 45 51.21         20.6 iUEB092F51
     K19B01P  C2019 01 23.59028 13 37 52.958+68 45 56.81         20.5 iUEB092F51
     K19B01P  C2019 01 23.60434 13 37 48.117+68 46 02.22         20.2 iUEB092F51
     K19B01P pC2019 01 23.95698913 35 51.96 +68 47 49.1          20.6 GVEB092L01
     K19B01P KC2019 01 23.95932613 35 51.17 +68 47 50.5          20.6 GVEB092L01
     K19B01P pC2019 01 23.96166313 35 50.52 +68 47 51.3          20.6 GVEB092L01
     K19B01P  C2019 01 24.28350913 34 03.18 +68 49 36.5          20.7 GVEB092H01
     K19B01P  C2019 01 24.28700313 34 01.99 +68 49 37.8          20.4 GVEB092H01
     K19B01P  C2019 01 24.29700113 33 58.63 +68 49 41.7          20.5 GVEB092H01
     K19B01P  C2019 01 24.30470613 33 56.01 +68 49 44.8          20.8 GVEB092H01
     K19B01P  C2019 01 24.50999 13 32 44.94 +68 50 57.6          20.0 GVEB092I52
     K19B01P  C2019 01 24.51228 13 32 44.12 +68 50 58.6          19.8 GVEB092I52
     K19B01P  C2019 01 24.51382 13 32 43.65 +68 50 59.5          19.8 GVEB092I52
     K19B01P  C2019 01 25.41905 13 27 36.34 +68 55 09.2                VEB092I52
     K19B01P  C2019 01 25.42106 13 27 35.68 +68 55 11.2          20.4 GVEB092I52
     K19B01P  C2019 01 25.42307 13 27 35.03 +68 55 12.8          20.2 GVEB092I52
     K19B01P  C2019 01 25.42509 13 27 34.16 +68 55 13.5          20.1 GVEB092I52
     K19B01P  C2019 01 26.49847 13 21 20.17 +68 59 17.9          21.0 GVEB092I52
     K19B01P  C2019 01 26.50000 13 21 19.70 +68 59 19.5          20.9 GVEB092I52
     K19B01P  C2019 01 26.50341 13 21 18.35 +68 59 20.3          21.9 GVEB092I52
     K19B01P  C2019 01 26.50493 13 21 17.82 +68 59 19.7          20.3 GVEB092I52
 
Observer details:
F51 Pan-STARRS 1, Haleakala.  Observers J. Bulger, T. Lowe, A. Schultz,
    M. Willman.  Measurers K. Chambers, S. Chastel, L. Denneau, J. Fairlamb,
    H. Flewelling, M. Huber, C.-C. Lin, E. Magnier, Y. Ramanjooloo,
    R. Wainscoat, R. Weryk.  1.8-m Ritchey-Chretien + CCD.
H01 Magdalena Ridge Observatory, Socorro.  Observers W. H. Ryan, E. V. Ryan.
    Measurer W. H. Ryan.  2.4-m f/8.9 Ritchey-Chretien + CCD.
I52 Steward Observatory, Mt. Lemmon Station.  Observers H. Groeller,
    B. M. Africano.  Measurers B. M. Africano, E. J. Christensen,
    G. A. Farneth, D. C. Fuls, A. R. Gibbs, A. D. Grauer, H. Groeller,
    R. A. Kowalski, S. M. Larson, G. J. Leonard, T. A. Pruyne, R. L. Seaman,
    F. C. Shelly.  1.0-m reflector + CCD.
L01 Visnjan Observatory, Tican.  Observer K. Korlevic.  1.0-m f/2.9 reflector
    + CCD.
 
Orbital elements:
2019 BP1                                            PHA, Earth MOID = 0.0302 AU
Epoch 2019 Apr. 27.0 TT = JDT 2458600.5                 MPC
M  39.18964              (2000.0)            P               Q
n   0.24121065     Peri.   18.36968     +0.62574531     -0.74666479
a   2.5558679      Node    33.98662     +0.65546490     +0.34648162
e   0.6308632      Incl.   23.81179     +0.42285763     +0.56783992
P   4.09           H   19.7           G   0.15           U   8
Residuals in seconds of arc
190123 F51  0.0   0.0     190124 H01  0.1-  0.0     190125 I52  0.1+  0.6-
190123 F51  0.0   0.1+    190124 H01  0.0   0.0     190125 I52  0.4+  0.3+
190123 F51  0.1+  0.1+    190124 H01  0.0   0.1+    190125 I52  0.4-  0.4+
190123 L01  0.5-  0.6-    190124 I52  0.0   0.3-    190126 I52  0.1-  0.5-
190123 L01  0.5-  0.1-    190124 I52  0.1-  0.0     190126 I52  0.4+  0.8+
190123 L01  0.2+  0.3-    190124 I52  0.3+  0.4+    190126 I52  0.2-  0.9+
190124 H01  0.0   0.1+    190125 I52  0.2-  2.0-    190126 I52  0.0   0.0

Ephemeris:
2019 BP1                 a,e,i = 2.56, 0.63, 24                  q = 0.9435
Date    TT    R. A. (2000) Decl.     Delta      r     Elong.  Phase     V
2018 12 27    15 20 20.4 +63 39 00   0.4354  1.1023    93.9    62.9    20.3
...
2019 01 11    14 35 59.1 +66 44 47   0.5167  1.2136   103.6    52.0    20.6
...
2019 01 19    14 01 42.8 +68 11 08   0.5571  1.2785   109.0    46.7    20.7
...
2019 01 25    13 29 58.7 +68 53 12   0.5878  1.3288   113.0    43.0    20.8
2019 01 26    13 24 14.3 +68 57 25   0.5930  1.3373   113.6    42.4    20.8
2019 01 27    13 18 23.5 +69 00 41   0.5983  1.3458   114.2    41.8    20.9
...
2019 02 02    12 41 43.0 +68 57 56   0.6314  1.3973   117.9    38.5    21.0
...
2019 02 10    11 53 01.2 +67 47 01   0.6804  1.4668   122.2    34.7    21.1
...
2019 02 25    10 44 06.3 +62 30 32   0.7946  1.5979   126.8    29.7    21.5

A. U. Tomatic                (C) Copyright 2019 MPC           M.P.E.C. 2019-B92



More information about the Iaude mailing list